Phuket, Thailand

12:22 PM +07 on March 28, 2017 (GMT +0700)
Phuket International

Weather History for VTSP - March, 2014

Change the Weather History Date:

Thursday, March 20, 2014

  Actual Average Record
Temperature  
Mean Temperature 82 °F -  
Max Temperature 91 °F 91 °F 102 °F (1998)
Min Temperature 72 °F 77 °F 72 °F (2014)
Cooling Degree Days 16    
Growing Degree Days 32 (Base 50)    
Moisture  
Dew Point 75 °F    
Average Humidity 73    
Maximum Humidity 94    
Minimum Humidity 52    
Precipitation  
Precipitation 0.00 in 0.16 in - ()
Sea Level Pressure  
Sea Level Pressure 29.84 in    
Wind  
Wind Speed 4 mph ()    
Max Wind Speed 15 mph    
Max Gust Speed -    
Visibility 5.8 miles    
Events      
Averages and records for this station are not official NWS values.
T = Trace of Precipitation, MM = Missing Value Source: Averaged Metar Reports

Daily Weather History Graph

Daily Weather History Graph

Search for Another Location

Airport or City:

Trip Planner

Search our weather history database for the weather conditions in past years. The results will help you decide how hot, cold, wet, or windy it might be!

Date:

Astronomy

Mar. 20, 2014 Rise Set
Actual Time 6:31 AM +07 6:37 PM +07
Civil Twilight 6:10 AM +07 6:58 PM +07
Nautical Twilight 5:46 AM +07 7:22 PM +07
Astronomical Twilight 5:21 AM +07 7:46 PM +07
Moon 9:40 PM +07 (3/20) 8:56 AM +07 (3/20)
Length of Visible Light 12h 48m
Length of Day
12h 06m
Waning Gibbous, 88% of the Moon is Illuminated
Mar 20
Waning Gibbous
Mar 24
Last Quarter
Mar 31
New
Apr 7
First Quarter
Apr 15
Full

Hourly Weather History & Observations

Time (+07) Temp. Heat Index Dew Point Humidity Pressure Visibility Wind Dir Wind Speed Gust Speed Precip Events Conditions
12:00 AM 82.4 °F 88.2 °F 73.4 °F 74% 29.89 in 5.6 mi Variable 2.3 mph - N/A   Mostly Cloudy
12:30 AM 80.6 °F 85.4 °F 73.4 °F 79% 29.89 in 5.6 mi Calm Calm - N/A   Mostly Cloudy
1:00 AM 81 °F - 74 °F 74% 29.84 in 6 mi Calm Calm - -   Scattered Clouds
1:00 AM 80.6 °F 85.4 °F 73.4 °F 79% 29.89 in 5.6 mi Calm Calm - N/A   Mostly Cloudy
1:30 AM 80.6 °F 85.4 °F 73.4 °F 79% 29.86 in 5.6 mi Calm Calm - N/A   Mostly Cloudy
2:00 AM 80.6 °F 85.4 °F 73.4 °F 79% 29.86 in 5.6 mi Calm Calm - N/A   Mostly Cloudy
2:30 AM 78.8 °F - 73.4 °F 83% 29.86 in 5.6 mi Calm Calm - N/A   Mostly Cloudy
3:00 AM 78.8 °F - 73.4 °F 83% 29.86 in 5.6 mi Calm Calm - N/A   Mostly Cloudy
3:30 AM 78.8 °F - 73.4 °F 83% 29.83 in 5.6 mi Calm Calm - N/A   Mostly Cloudy
4:00 AM 79 °F - 76 °F 87% 29.81 in 6 mi Calm Calm - -   Scattered Clouds
4:00 AM 78.8 °F - 73.4 °F 83% 29.83 in 5.6 mi Calm Calm - N/A   Mostly Cloudy
4:30 AM 78.8 °F - 73.4 °F 83% 29.83 in 5.6 mi Calm Calm - N/A   Mostly Cloudy
5:00 AM 77.0 °F - 73.4 °F 89% 29.83 in 5.6 mi Calm Calm - N/A   Mostly Cloudy
5:30 AM 77.0 °F - 73.4 °F 89% 29.83 in 5.6 mi Calm Calm - N/A   Mostly Cloudy
6:00 AM 78.8 °F - 75.2 °F 89% 29.86 in 5.6 mi NNE 1.2 mph - N/A   Mostly Cloudy
6:30 AM 78.8 °F - 73.4 °F 83% 29.86 in 5.0 mi Variable 1.2 mph - N/A   Mostly Cloudy
7:00 AM 78 °F - 76 °F 94% 29.85 in 5 mi Calm Calm - -   Mist
7:00 AM 78.8 °F - 73.4 °F 83% 29.86 in 5.0 mi Calm Calm - N/A   Mostly Cloudy
7:30 AM 80.6 °F 85.4 °F 73.4 °F 79% 29.89 in 5.0 mi Calm Calm - N/A   Mostly Cloudy
8:00 AM 82.4 °F 88.2 °F 73.4 °F 74% 29.89 in 5.0 mi NNE 3.5 mph - N/A   Mostly Cloudy
8:30 AM 86.0 °F 93.4 °F 73.4 °F 66% 29.89 in 6.2 mi NNE 5.8 mph - N/A   Partly Cloudy
9:00 AM 86.0 °F 93.4 °F 73.4 °F 66% 29.89 in 6.2 mi NW 5.8 mph - N/A   Scattered Clouds
9:30 AM 86.0 °F 93.4 °F 73.4 °F 66% 29.89 in 6.2 mi NW 5.8 mph - N/A   Scattered Clouds
10:00 AM 87 °F - 74 °F 57% 29.87 in 6 mi Calm Calm - -   Scattered Clouds
10:00 AM 86.0 °F 93.4 °F 73.4 °F 66% 29.89 in 6.2 mi NW 5.8 mph - N/A   Mostly Cloudy
10:30 AM 91.4 °F 98.4 °F 71.6 °F 52% 29.92 in 6.2 mi WSW 5.8 mph - N/A   Scattered Clouds
11:00 AM 87.8 °F 93.8 °F 71.6 °F 58% 29.92 in 6.2 mi WNW 8.1 mph - N/A   Mostly Cloudy
11:30 AM 89.6 °F 98.2 °F 73.4 °F 59% 29.89 in 6.2 mi West 10.4 mph - N/A   Mostly Cloudy
12:30 PM 89.6 °F 98.2 °F 73.4 °F 59% 29.86 in 6.2 mi West 11.5 mph - N/A   Mostly Cloudy
1:00 PM 91 °F - 78 °F 57% 29.87 in 6 mi WNW 5.8 mph - -   Scattered Clouds
1:00 PM 89.6 °F 98.2 °F 73.4 °F 59% 29.86 in 6.2 mi West 11.5 mph - N/A   Mostly Cloudy
1:30 PM 91.4 °F 100.1 °F 73.4 °F 55% 29.83 in 6.2 mi WNW 11.5 mph - N/A   Mostly Cloudy
2:00 PM 91.4 °F 100.1 °F 73.4 °F 55% 29.83 in 6.2 mi West 12.7 mph - N/A   Mostly Cloudy
2:30 PM 89.6 °F 96.2 °F 71.6 °F 55% 29.80 in 6.2 mi WNW 13.8 mph - N/A   Scattered Clouds
3:00 PM 89.6 °F 98.2 °F 73.4 °F 59% 29.80 in 6.2 mi West 13.8 mph - N/A   Scattered Clouds
3:30 PM 89.6 °F 99.8 °F 75.2 °F 62% 29.80 in 6.2 mi West 15.0 mph - N/A   Scattered Clouds
4:00 PM 88 °F - 76 °F 60% 29.75 in 6 mi WNW 5.8 mph - -   Scattered Clouds
4:00 PM 89.6 °F 99.8 °F 75.2 °F 62% 29.77 in 6.2 mi West 15.0 mph - N/A   Scattered Clouds
4:30 PM 87.8 °F 97.6 °F 75.2 °F 66% 29.77 in 6.2 mi WNW 11.5 mph - N/A   Scattered Clouds
5:00 PM 87.8 °F 97.6 °F 75.2 °F 66% 29.77 in 6.2 mi WNW 13.8 mph - N/A   Scattered Clouds
5:30 PM 86.0 °F 95.1 °F 75.2 °F 70% 29.77 in 6.2 mi West 15.0 mph - N/A   Mostly Cloudy
6:30 PM 84.2 °F 92.3 °F 75.2 °F 74% 29.80 in 6.2 mi WNW 10.4 mph - N/A   Mostly Cloudy
7:00 PM 87 °F - 78 °F 68% 29.78 in 6 mi WNW 5.8 mph - -   Scattered Clouds
7:00 PM 84.2 °F 94.1 °F 77.0 °F 79% 29.80 in 6.2 mi WNW 11.5 mph - N/A   Mostly Cloudy
7:30 PM 84.2 °F 94.1 °F 77.0 °F 79% 29.80 in 6.2 mi West 13.8 mph - N/A   Mostly Cloudy
8:00 PM 84.2 °F 94.1 °F 77.0 °F 79% 29.83 in 6.2 mi West 11.5 mph - N/A   Mostly Cloudy
8:30 PM 84.2 °F 94.1 °F 77.0 °F 79% 29.83 in 5.6 mi Variable 2.3 mph - N/A   Mostly Cloudy
9:00 PM 84.2 °F 92.3 °F 75.2 °F 74% 29.83 in 5.6 mi Variable 4.6 mph - N/A   Mostly Cloudy
9:30 PM 84.2 °F 94.1 °F 77.0 °F 79% 29.86 in 5.6 mi WNW 10.4 mph - N/A   Mostly Cloudy
10:00 PM 85 °F - 79 °F 78% 29.83 in 6 mi North 11.5 mph - -   Scattered Clouds
10:00 PM 84.2 °F 94.1 °F 77.0 °F 79% 29.86 in 5.6 mi WNW 10.4 mph - N/A   Mostly Cloudy
10:30 PM 84.2 °F 94.1 °F 77.0 °F 79% 29.86 in 5.6 mi West 10.4 mph - N/A   Mostly Cloudy
11:00 PM 84.2 °F 92.3 °F 75.2 °F 74% 29.86 in 5.6 mi West 11.5 mph - N/A   Mostly Cloudy
11:30 PM 84.2 °F 92.3 °F 75.2 °F 74% 29.86 in 5.6 mi WNW 9.2 mph - N/A   Mostly Cloudy